User: anonymous   Login
Location: Degersen
(52.2871°N, 9.5716°E)
Time: 09:04:30
(UTC+00:00)
Language:

SL-08 R/B - Orbit

View from above orbital plane
View from above orbital plane
View from above satellite
View from above satellite

Ground track
Ground track

The orbit is defined by the following mean orbital elements,

1 27561U          26072.89118852 +.00000000 +00000-0 +10548-3 0 00004
2 27561  98.4714 291.7970 0045288  64.8277 295.7608 14.58492942    07
Epoch (UTC): 13 March 2026 21:23:18
Eccentricity: 0.0045288
inclination: 98.4714°
perigee height: 666 km
apogee height: 730 km
right ascension of ascending node: 291.7970°
argument of perigee: 64.8277°
revolutions per day: 14.58492942
mean anomaly at epoch: 295.7608°

The dashed part of the orbit path shows where the satellite is in the earth's shadow,  

DLR